Date;Heure;Tabri;Pmer;Uabri;Pluie;IntensPluie;VentMoy;VentRaf;DirVentMoy;DirVentRaf;
jj/mm/aaaa;hh:mm;deg.C;hPa;%;mm;mm/h;km/h;km/h;secteur;secteur;
01/01/2022;00:15;2.8;1026.6;96.0;0.000;0.000;0.0;0.0;-999;-999;
01/01/2022;00:30;2.5;1026.4;96.0;0.000;0.000;0.0;0.0;-999;-999;
01/01/2022;00:45;2.6;1026.4;96.0;0.000;0.000;0.0;0.0;-999;-999;
01/01/2022;01:00;2.2;1026.3;96.0;0.000;0.000;0.0;0.0;-999;-999;
01/01/2022;01:15;2.3;1026.4;96.0;0.000;0.000;0.0;0.0;-999;-999;
01/01/2022;01:30;2.1;1026.3;96.0;0.000;0.000;0.0;0.0;-999;-999;
01/01/2022;01:45;2.2;1026.4;96.0;0.000;0.000;0.0;0.0;-999;-999;
01/01/2022;02:00;1.7;1026.2;96.0;0.000;0.000;0.0;0.0;-999;-999;
01/01/2022;02:15;1.9;1026.2;96.0;0.000;0.000;0.0;0.0;-999;-999;
01/01/2022;02:30;1.6;1026.2;96.0;0.000;0.000;0.0;0.0;-999;-999;
01/01/2022;02:45;1.1;1026.1;96.0;0.000;0.000;0.0;0.0;-999;-999;
01/01/2022;03:00;0.9;1026.2;96.0;0.200;0.000;0.0;0.0;-999;-999;
01/01/2022;03:15;1.1;1026.4;96.0;0.000;0.000;0.0;0.0;-999;-999;
01/01/2022;03:30;0.9;1026.4;96.0;0.000;0.000;0.0;0.0;-999;-999;
01/01/2022;03:45;0.8;1026.3;97.0;0.000;0.000;0.0;0.0;-999;-999;
01/01/2022;04:00;1.1;1026.4;97.0;0.000;0.000;0.0;0.0;-999;-999;
01/01/2022;04:15;1.2;1026.3;97.0;0.000;0.000;0.0;0.0;-999;-999;
01/01/2022;04:30;0.7;1026.4;97.0;0.000;0.000;0.0;0.0;-999;-999;
01/01/2022;04:45;0.4;1026.3;97.0;0.000;0.000;0.0;0.0;-999;-999;
01/01/2022;05:00;0.4;1026.1;97.0;0.000;0.000;0.0;0.0;-999;-999;
01/01/2022;05:15;0.5;1026.0;97.0;0.000;0.000;0.0;0.0;-999;-999;
01/01/2022;05:30;0.3;1026.0;97.0;0.000;0.000;0.0;0.0;-999;-999;
01/01/2022;05:45;0.5;1026.2;97.0;0.000;0.000;0.0;0.0;-999;-999;
01/01/2022;06:00;0.8;1026.2;97.0;0.000;0.000;0.0;0.0;-999;-999;
01/01/2022;06:15;0.7;1026.2;97.0;0.000;0.000;0.0;0.0;-999;-999;
01/01/2022;06:30;0.5;1026.3;97.0;0.000;0.000;0.0;0.0;-999;-999;
01/01/2022;06:45;0.3;1026.3;97.0;0.000;0.000;0.0;0.0;-999;-999;
01/01/2022;07:00;0.1;1026.4;97.0;0.000;0.000;0.0;0.0;-999;-999;
01/01/2022;07:15;0.1;1026.7;97.0;0.000;0.000;0.0;0.0;-999;-999;
01/01/2022;07:30;-0.2;1026.7;97.0;0.000;0.000;0.0;0.0;-999;-999;
01/01/2022;07:45;-0.3;1027.1;97.0;0.000;0.000;0.0;0.0;-999;-999;
01/01/2022;08:00;-0.4;1027.3;97.0;0.000;0.000;0.0;0.0;-999;-999;
01/01/2022;08:15;-0.6;1027.4;97.0;0.000;0.000;0.0;0.0;-999;-999;
01/01/2022;08:30;-0.4;1027.5;97.0;0.000;0.000;0.0;0.0;-999;-999;
01/01/2022;08:45;-0.4;1027.6;97.0;0.000;0.000;0.0;0.0;-999;-999;
01/01/2022;09:00;-0.2;1027.7;97.0;0.000;0.000;0.0;0.0;-999;-999;
01/01/2022;09:15;0.2;1027.8;97.0;0.000;0.000;0.0;0.0;-999;-999;
01/01/2022;09:30;0.7;1027.8;97.0;0.000;0.000;0.0;0.0;-999;-999;
01/01/2022;09:45;1.5;1028.0;97.0;0.000;0.000;0.0;0.0;-999;-999;
01/01/2022;10:00;2.2;1028.1;97.0;0.000;0.000;0.0;0.0;-999;-999;
01/01/2022;10:15;2.9;1028.1;97.0;0.000;0.000;0.0;0.0;-999;-999;
01/01/2022;10:30;4.0;1028.1;97.0;0.000;0.000;0.0;1.6;NE;NE;
01/01/2022;10:45;4.5;1028.2;97.0;0.000;0.000;0.0;1.6;-999;ESE;
01/01/2022;11:00;5.2;1028.1;97.0;0.000;0.000;0.0;0.0;-999;-999;
01/01/2022;11:15;5.8;1028.1;97.0;0.000;0.000;0.0;3.2;ESE;E;
01/01/2022;11:30;6.1;1028.3;97.0;0.000;0.000;0.0;0.0;-999;-999;
01/01/2022;11:45;6.9;1028.4;97.0;0.000;0.000;0.0;1.6;ESE;ESE;
01/01/2022;12:00;8.0;1028.1;94.0;0.000;0.000;0.0;1.6;ESE;E;
01/01/2022;12:15;9.2;1028.0;83.0;0.000;0.000;0.0;3.2;NE;ENE;
01/01/2022;12:30;10.2;1028.1;76.0;0.000;0.000;0.0;1.6;ENE;NE;
01/01/2022;12:45;11.1;1027.9;73.0;0.000;0.000;0.0;3.2;ENE;ENE;
01/01/2022;13:00;11.9;1027.5;71.0;0.000;0.000;1.6;4.8;ESE;E;
01/01/2022;13:15;12.2;1027.4;75.0;0.000;0.000;1.6;4.8;ENE;E;
01/01/2022;13:30;12.7;1027.1;77.0;0.000;0.000;1.6;4.8;E;NE;
01/01/2022;13:45;13.2;1026.8;78.0;0.000;0.000;1.6;4.8;ESE;ENE;
01/01/2022;14:00;13.8;1026.7;78.0;0.000;0.000;0.0;3.2;ESE;ESE;
01/01/2022;14:15;14.2;1026.5;77.0;0.000;0.000;0.0;1.6;ESE;ESE;
01/01/2022;14:30;14.6;1026.3;76.0;0.000;0.000;0.0;3.2;ESE;E;
01/01/2022;14:45;14.9;1026.3;76.0;0.000;0.000;0.0;3.2;ESE;ESE;
01/01/2022;15:00;15.2;1026.1;75.0;0.000;0.000;0.0;1.6;ESE;ESE;
01/01/2022;15:15;15.7;1026.2;70.0;0.000;0.000;0.0;3.2;ESE;ESE;
01/01/2022;15:30;15.9;1026.1;71.0;0.000;0.000;0.0;1.6;-999;ESE;
01/01/2022;15:45;15.7;1026.1;72.0;0.000;0.000;0.0;1.6;ESE;ESE;
01/01/2022;16:00;15.6;1026.1;74.0;0.000;0.000;0.0;1.6;ESE;ESE;
01/01/2022;16:15;15.4;1026.1;75.0;0.000;0.000;0.0;1.6;-999;ESE;
01/01/2022;16:30;14.9;1026.1;78.0;0.000;0.000;0.0;0.0;-999;-999;
01/01/2022;16:45;14.2;1026.0;81.0;0.000;0.000;0.0;0.0;-999;-999;
01/01/2022;17:00;13.4;1026.1;84.0;0.000;0.000;0.0;0.0;-999;-999;
01/01/2022;17:15;12.6;1026.0;86.0;0.000;0.000;0.0;0.0;-999;-999;
01/01/2022;17:30;11.6;1026.2;89.0;0.000;0.000;0.0;0.0;-999;-999;
01/01/2022;17:45;10.9;1026.3;91.0;0.000;0.000;0.0;0.0;-999;-999;
01/01/2022;18:00;10.2;1026.4;92.0;0.000;0.000;0.0;0.0;-999;-999;
01/01/2022;18:15;9.3;1026.4;93.0;0.000;0.000;0.0;0.0;-999;-999;
01/01/2022;18:30;8.4;1026.3;93.0;0.000;0.000;0.0;0.0;-999;-999;
01/01/2022;18:45;7.7;1026.2;93.0;0.000;0.000;0.0;0.0;-999;-999;
01/01/2022;19:00;7.3;1026.3;94.0;0.000;0.000;0.0;0.0;-999;-999;
01/01/2022;19:15;7.1;1026.4;95.0;0.000;0.000;0.0;0.0;-999;-999;
01/01/2022;19:30;6.4;1026.4;95.0;0.000;0.000;0.0;0.0;-999;-999;
01/01/2022;19:45;6.1;1026.3;95.0;0.000;0.000;0.0;0.0;-999;-999;
01/01/2022;20:00;5.8;1026.4;95.0;0.000;0.000;0.0;0.0;-999;-999;
01/01/2022;20:15;5.7;1026.4;95.0;0.000;0.000;0.0;0.0;-999;-999;
01/01/2022;20:30;5.2;1026.4;95.0;0.000;0.000;0.0;0.0;-999;-999;
01/01/2022;20:45;5.0;1026.3;95.0;0.000;0.000;0.0;0.0;-999;-999;
01/01/2022;21:00;4.7;1026.2;96.0;0.000;0.000;0.0;0.0;-999;-999;
01/01/2022;21:15;4.6;1026.2;96.0;0.000;0.000;0.0;0.0;-999;-999;
01/01/2022;21:30;4.4;1026.1;96.0;0.000;0.000;0.0;0.0;-999;-999;
01/01/2022;21:45;4.2;1026.1;96.0;0.000;0.000;0.0;0.0;-999;-999;
01/01/2022;22:00;3.8;1026.0;96.0;0.000;0.000;0.0;0.0;-999;-999;
01/01/2022;22:15;3.5;1026.0;96.0;0.000;0.000;0.0;0.0;-999;-999;
01/01/2022;22:30;3.5;1025.9;96.0;0.000;0.000;0.0;0.0;-999;-999;
01/01/2022;22:45;3.8;1025.8;96.0;0.000;0.000;0.0;0.0;-999;-999;
01/01/2022;23:00;3.6;1025.8;96.0;0.000;0.000;0.0;0.0;-999;-999;
01/01/2022;23:15;3.4;1025.8;96.0;0.000;0.000;0.0;0.0;-999;-999;
01/01/2022;23:30;3.4;1025.8;96.0;0.000;0.000;0.0;0.0;-999;-999;
01/01/2022;23:45;3.6;1025.9;96.0;0.000;0.000;0.0;0.0;-999;-999;
02/01/2022;00:00;3.4;1025.8;96.0;0.000;0.000;0.0;0.0;-999;-999;
02/01/2022;00:15;3.7;1025.7;96.0;0.000;0.000;0.0;0.0;-999;-999;
02/01/2022;00:30;3.5;1025.9;96.0;0.000;0.000;0.0;0.0;-999;-999;
02/01/2022;00:45;3.6;1025.8;96.0;0.000;0.000;0.0;0.0;-999;-999;
02/01/2022;01:00;3.4;1025.8;96.0;0.000;0.000;0.0;0.0;-999;-999;
02/01/2022;01:15;3.5;1025.8;96.0;0.000;0.000;0.0;0.0;-999;-999;
02/01/2022;01:30;3.6;1025.9;96.0;0.000;0.000;0.0;0.0;-999;-999;
02/01/2022;01:45;3.8;1025.7;97.0;0.200;0.000;0.0;0.0;-999;-999;
02/01/2022;02:00;4.0;1025.8;97.0;0.000;0.000;0.0;1.6;-999;SE;
02/01/2022;02:15;4.6;1025.6;97.0;0.000;0.000;0.0;3.2;ESE;ENE;
02/01/2022;02:30;5.0;1025.8;97.0;0.000;0.000;0.0;4.8;E;ESE;
02/01/2022;02:45;5.3;1025.7;97.0;0.000;0.000;1.6;8.0;E;E;
02/01/2022;03:00;5.4;1025.5;97.0;0.000;0.000;0.0;6.4;ESE;ESE;
02/01/2022;03:15;5.6;1025.6;97.0;0.000;0.000;0.0;4.8;-999;E;
02/01/2022;03:30;5.8;1025.7;97.0;0.000;0.000;0.0;1.6;-999;OSO;
02/01/2022;03:45;5.8;1025.7;97.0;0.000;0.000;0.0;1.6;NO;E;
02/01/2022;04:00;5.7;1025.9;97.0;0.000;0.000;0.0;3.2;ENE;ENE;
02/01/2022;04:15;5.7;1025.8;97.0;0.000;0.000;0.0;1.6;-999;NO;
02/01/2022;04:30;5.8;1025.6;97.0;0.000;0.000;0.0;3.2;-999;ESE;
02/01/2022;04:45;5.9;1025.6;97.0;0.000;0.000;0.0;1.6;-999;ENE;
02/01/2022;05:00;6.2;1025.6;97.0;0.000;0.000;0.0;1.6;E;ESE;
02/01/2022;05:15;6.2;1025.5;97.0;0.000;0.000;0.0;1.6;-999;SE;
02/01/2022;05:30;6.2;1025.5;97.0;0.000;0.000;0.0;1.6;NE;ESE;
02/01/2022;05:45;6.2;1025.5;97.0;0.000;0.000;0.0;1.6;-999;OSO;
02/01/2022;06:00;6.4;1025.6;97.0;0.000;0.000;0.0;3.2;E;E;
02/01/2022;06:15;6.5;1025.7;97.0;0.000;0.000;0.0;1.6;ESE;NNE;
02/01/2022;06:30;6.6;1025.7;97.0;0.000;0.000;0.0;3.2;-999;E;
02/01/2022;06:45;6.7;1025.9;97.0;0.000;0.000;0.0;3.2;SE;SE;
02/01/2022;07:00;6.7;1025.9;97.0;0.000;0.000;0.0;1.6;-999;SE;
02/01/2022;07:15;6.8;1026.0;96.0;0.000;0.000;0.0;3.2;OSO;ENE;
02/01/2022;07:30;6.8;1026.2;96.0;0.000;0.000;0.0;1.6;SO;ESE;
02/01/2022;07:45;6.8;1026.4;96.0;0.000;0.000;0.0;3.2;O;SO;
02/01/2022;08:00;6.8;1026.5;96.0;0.000;0.000;0.0;1.6;OSO;OSO;
02/01/2022;08:15;6.8;1026.7;96.0;0.000;0.000;0.0;1.6;-999;ESE;
02/01/2022;08:30;6.8;1027.0;96.0;0.000;0.000;0.0;6.4;ESE;E;
02/01/2022;08:45;6.8;1027.1;96.0;0.000;0.000;0.0;3.2;ENE;SSO;
02/01/2022;09:00;6.9;1027.3;96.0;0.000;0.000;0.0;1.6;OSO;E;
02/01/2022;09:15;6.9;1027.4;96.0;0.000;0.000;0.0;1.6;-999;ONO;
02/01/2022;09:30;6.9;1027.5;96.0;0.000;0.000;0.0;4.8;SE;ENE;
02/01/2022;09:45;7.1;1027.8;96.0;0.000;0.000;0.0;1.6;-999;O;
02/01/2022;10:00;7.1;1028.2;96.0;0.000;0.000;0.0;4.8;O;ONO;
02/01/2022;10:15;7.3;1028.4;96.0;0.000;0.000;0.0;1.6;OSO;NO;
02/01/2022;10:30;7.6;1028.5;96.0;0.000;0.000;0.0;3.2;ESE;ESE;
02/01/2022;10:45;7.8;1028.4;96.0;0.000;0.000;0.0;1.6;E;E;
02/01/2022;11:00;7.9;1028.5;96.0;0.000;0.000;0.0;4.8;-999;ESE;
02/01/2022;11:15;8.0;1028.5;96.0;0.000;0.000;0.0;1.6;O;OSO;
02/01/2022;11:30;8.2;1028.6;95.0;0.000;0.000;0.0;6.4;O;OSO;
02/01/2022;11:45;8.5;1028.5;95.0;0.000;0.000;0.0;4.8;N;SO;
02/01/2022;12:00;8.9;1028.6;95.0;0.000;0.000;0.0;1.6;OSO;O;
02/01/2022;12:15;9.7;1028.5;94.0;0.000;0.000;0.0;1.6;-999;SO;
02/01/2022;12:30;10.6;1028.4;92.0;0.000;0.000;0.0;0.0;-999;-999;
02/01/2022;12:45;10.9;1028.2;89.0;0.000;0.000;0.0;0.0;-999;-999;
02/01/2022;13:00;11.5;1028.3;87.0;0.000;0.000;0.0;0.0;-999;-999;
02/01/2022;13:15;11.7;1028.3;87.0;0.000;0.000;0.0;0.0;-999;-999;
02/01/2022;13:30;12.2;1028.1;86.0;0.000;0.000;0.0;1.6;-999;ESE;
02/01/2022;13:45;12.8;1028.0;81.0;0.000;0.000;0.0;0.0;-999;-999;
02/01/2022;14:00;13.2;1028.1;76.0;0.000;0.000;0.0;0.0;-999;-999;
02/01/2022;14:15;13.5;1027.9;74.0;0.000;0.000;0.0;0.0;-999;-999;
02/01/2022;14:30;14.2;1027.8;72.0;0.000;0.000;0.0;0.0;-999;-999;
02/01/2022;14:45;14.4;1027.4;73.0;0.000;0.000;0.0;0.0;-999;-999;
02/01/2022;15:00;14.6;1027.6;71.0;0.000;0.000;0.0;0.0;-999;-999;
02/01/2022;15:15;15.0;1027.6;72.0;0.000;0.000;0.0;0.0;-999;-999;
02/01/2022;15:30;15.4;1027.5;76.0;0.000;0.000;0.0;4.8;ONO;NO;
02/01/2022;15:45;15.4;1027.6;76.0;0.000;0.000;0.0;3.2;N;ONO;
02/01/2022;16:00;15.3;1027.8;77.0;0.000;0.000;0.0;4.8;NO;ONO;
02/01/2022;16:15;15.1;1028.1;78.0;0.000;0.000;0.0;3.2;NE;NE;
02/01/2022;16:30;14.9;1028.4;79.0;0.000;0.000;0.0;1.6;NE;NE;
02/01/2022;16:45;14.6;1028.4;79.0;0.000;0.000;0.0;0.0;-999;-999;
02/01/2022;17:00;14.1;1028.1;80.0;0.000;0.000;0.0;0.0;-999;-999;
02/01/2022;17:15;13.3;1028.3;83.0;0.000;0.000;0.0;0.0;-999;-999;
02/01/2022;17:30;12.9;1028.5;84.0;0.000;0.000;0.0;1.6;O;NO;
02/01/2022;17:45;12.4;1028.4;84.0;0.000;0.000;0.0;0.0;-999;-999;
02/01/2022;18:00;11.3;1028.5;87.0;0.000;0.000;0.0;0.0;-999;-999;
02/01/2022;18:15;10.2;1028.8;90.0;0.000;0.000;0.0;0.0;-999;-999;
02/01/2022;18:30;9.4;1028.9;91.0;0.000;0.000;0.0;0.0;-999;-999;
02/01/2022;18:45;8.8;1028.8;93.0;0.000;0.000;0.0;1.6;O;O;
02/01/2022;19:00;8.7;1029.1;94.0;0.000;0.000;0.0;1.6;-999;NE;
02/01/2022;19:15;9.1;1029.3;94.0;0.000;0.000;0.0;3.2;-999;ENE;
02/01/2022;19:30;8.9;1029.4;94.0;0.000;0.000;0.0;0.0;-999;-999;
02/01/2022;19:45;8.8;1029.5;94.0;0.000;0.000;0.0;0.0;-999;-999;
02/01/2022;20:00;9.1;1029.7;94.0;0.000;0.000;0.0;0.0;-999;-999;
02/01/2022;20:15;8.3;1029.5;94.0;0.000;0.000;0.0;0.0;-999;-999;
02/01/2022;20:30;7.8;1029.7;94.0;0.000;0.000;0.0;0.0;-999;-999;
02/01/2022;20:45;7.4;1030.0;94.0;0.000;0.000;0.0;0.0;-999;-999;
02/01/2022;21:00;7.4;1030.0;95.0;0.000;0.000;0.0;0.0;-999;-999;
02/01/2022;21:15;7.8;1030.0;95.0;0.000;0.000;0.0;0.0;-999;-999;
02/01/2022;21:30;8.3;1030.1;95.0;0.000;0.000;0.0;0.0;-999;-999;
02/01/2022;21:45;8.4;1030.0;95.0;0.000;0.000;0.0;0.0;-999;-999;
02/01/2022;22:00;8.1;1029.8;95.0;0.000;0.000;0.0;0.0;-999;-999;
02/01/2022;22:15;7.6;1029.8;95.0;0.000;0.000;0.0;0.0;-999;-999;
02/01/2022;22:30;7.0;1029.8;95.0;0.000;0.000;0.0;0.0;-999;-999;
02/01/2022;22:45;6.9;1029.9;95.0;0.000;0.000;0.0;0.0;-999;-999;
02/01/2022;23:00;6.7;1029.8;95.0;0.000;0.000;0.0;0.0;-999;-999;
02/01/2022;23:15;6.4;1029.6;95.0;0.000;0.000;0.0;0.0;-999;-999;
02/01/2022;23:30;6.0;1029.5;95.0;0.000;0.000;0.0;0.0;-999;-999;
02/01/2022;23:45;5.8;1029.9;95.0;0.000;0.000;0.0;0.0;-999;-999;
03/01/2022;00:00;5.8;1029.6;95.0;0.000;0.000;0.0;0.0;-999;-999;
03/01/2022;00:15;5.4;1029.3;95.0;0.000;0.000;0.0;0.0;-999;-999;
03/01/2022;00:30;4.9;1029.2;95.0;0.000;0.000;0.0;0.0;-999;-999;
03/01/2022;00:45;4.6;1029.1;96.0;0.000;0.000;0.0;0.0;-999;-999;
03/01/2022;01:00;4.2;1028.9;96.0;0.000;0.000;0.0;0.0;-999;-999;
03/01/2022;01:15;4.3;1028.5;96.0;0.000;0.000;0.0;0.0;-999;-999;
03/01/2022;01:30;4.2;1028.4;96.0;0.000;0.000;0.0;0.0;-999;-999;
03/01/2022;01:45;4.8;1028.3;96.0;0.000;0.000;0.0;0.0;-999;-999;
03/01/2022;02:00;4.5;1028.2;96.0;0.000;0.000;0.0;0.0;-999;-999;
03/01/2022;02:15;4.4;1028.2;96.0;0.000;0.000;0.0;0.0;-999;-999;
03/01/2022;02:30;4.1;1028.1;96.0;0.000;0.000;0.0;0.0;-999;-999;
03/01/2022;02:45;3.7;1028.1;96.0;0.000;0.000;0.0;0.0;-999;-999;
03/01/2022;03:00;3.5;1027.8;96.0;0.000;0.000;0.0;0.0;-999;-999;
03/01/2022;03:15;3.5;1027.7;96.0;0.000;0.000;0.0;0.0;-999;-999;
03/01/2022;03:30;3.0;1027.7;96.0;0.000;0.000;0.0;0.0;-999;-999;
03/01/2022;03:45;3.1;1027.9;96.0;0.000;0.000;0.0;0.0;-999;-999;
03/01/2022;04:00;3.4;1027.6;96.0;0.000;0.000;0.0;0.0;-999;-999;
03/01/2022;04:15;3.3;1027.5;96.0;0.000;0.000;0.0;0.0;-999;-999;
03/01/2022;04:30;3.3;1027.1;96.0;0.000;0.000;0.0;0.0;-999;-999;
03/01/2022;04:45;3.1;1027.1;96.0;0.000;0.000;0.0;0.0;-999;-999;
03/01/2022;05:00;2.9;1027.0;96.0;0.000;0.000;0.0;0.0;-999;-999;
03/01/2022;05:15;2.7;1026.9;96.0;0.000;0.000;0.0;0.0;-999;-999;
03/01/2022;05:30;2.9;1026.9;96.0;0.000;0.000;0.0;0.0;-999;-999;
03/01/2022;05:45;2.7;1026.9;96.0;0.000;0.000;0.0;0.0;-999;-999;
03/01/2022;06:00;2.4;1027.0;96.0;0.000;0.000;0.0;0.0;-999;-999;
03/01/2022;06:15;2.3;1027.0;96.0;0.000;0.000;0.0;0.0;-999;-999;
03/01/2022;06:30;2.5;1026.9;96.0;0.000;0.000;0.0;0.0;-999;-999;
03/01/2022;06:45;2.6;1026.9;96.0;0.000;0.000;0.0;0.0;-999;-999;
03/01/2022;07:00;2.3;1026.6;96.0;0.000;0.000;0.0;0.0;-999;-999;
03/01/2022;07:15;2.3;1026.5;97.0;0.000;0.000;0.0;0.0;-999;-999;
03/01/2022;07:30;2.3;1026.8;97.0;0.000;0.000;0.0;0.0;-999;-999;
03/01/2022;07:45;2.2;1026.7;97.0;0.000;0.000;0.0;0.0;-999;-999;
03/01/2022;08:00;2.4;1026.5;97.0;0.000;0.000;0.0;0.0;-999;-999;
03/01/2022;08:15;2.8;1026.5;97.0;0.000;0.000;0.0;0.0;-999;-999;
03/01/2022;08:30;2.9;1026.7;97.0;0.000;0.000;0.0;0.0;-999;-999;
03/01/2022;08:45;2.8;1026.5;97.0;0.000;0.000;0.0;0.0;-999;-999;
03/01/2022;09:00;3.1;1026.3;97.0;0.000;0.000;0.0;0.0;-999;-999;
03/01/2022;09:15;3.5;1026.1;97.0;0.000;0.000;0.0;0.0;-999;-999;
03/01/2022;09:30;3.8;1026.2;97.0;0.000;0.000;0.0;0.0;-999;-999;
03/01/2022;09:45;4.4;1026.5;97.0;0.000;0.000;0.0;1.6;-999;O;
03/01/2022;10:00;4.9;1026.5;97.0;0.000;0.000;0.0;0.0;-999;-999;
03/01/2022;10:15;5.4;1026.5;97.0;0.000;0.000;0.0;0.0;-999;-999;
03/01/2022;10:30;5.8;1026.4;97.0;0.000;0.000;0.0;0.0;-999;-999;
03/01/2022;10:45;6.3;1026.4;97.0;0.000;0.000;0.0;0.0;-999;-999;
03/01/2022;11:00;6.6;1026.2;97.0;0.000;0.000;0.0;0.0;-999;-999;
03/01/2022;11:15;7.1;1026.0;97.0;0.000;0.000;0.0;0.0;-999;-999;
03/01/2022;11:30;7.7;1025.7;97.0;0.000;0.000;0.0;1.6;S;S;
03/01/2022;11:45;8.3;1025.4;97.0;0.000;0.000;0.0;0.0;-999;-999;
03/01/2022;12:00;8.9;1025.0;97.0;0.000;0.000;0.0;3.2;ESE;ESE;
03/01/2022;12:15;9.6;1024.5;97.0;0.000;0.000;0.0;3.2;ESE;ESE;
03/01/2022;12:30;10.5;1024.3;95.0;0.000;0.000;0.0;4.8;ESE;ESE;
03/01/2022;12:45;11.3;1024.0;90.0;0.000;0.000;0.0;1.6;ESE;ESE;
03/01/2022;13:00;11.9;1023.4;88.0;0.000;0.000;0.0;1.6;-999;ESE;
03/01/2022;13:15;12.3;1023.3;86.0;0.000;0.000;0.0;4.8;ESE;E;
03/01/2022;13:30;12.7;1022.9;85.0;0.000;0.000;0.0;0.0;-999;-999;
03/01/2022;13:45;13.1;1022.7;84.0;0.000;0.000;0.0;0.0;-999;-999;
03/01/2022;14:00;13.4;1022.4;83.0;0.000;0.000;0.0;0.0;-999;-999;
03/01/2022;14:15;13.6;1022.0;83.0;0.000;0.000;0.0;3.2;-999;ESE;
03/01/2022;14:30;13.6;1021.5;82.0;0.000;0.000;0.0;0.0;-999;-999;
03/01/2022;14:45;13.7;1021.2;83.0;0.000;0.000;0.0;1.6;-999;ESE;
03/01/2022;15:00;13.9;1020.9;83.0;0.000;0.000;0.0;3.2;-999;ESE;
03/01/2022;15:15;14.1;1020.8;82.0;0.000;0.000;0.0;1.6;-999;ESE;
03/01/2022;15:30;14.3;1020.6;82.0;0.000;0.000;0.0;0.0;-999;-999;
03/01/2022;15:45;14.1;1020.5;82.0;0.000;0.000;0.0;1.6;-999;ESE;
03/01/2022;16:00;14.0;1020.6;83.0;0.000;0.000;0.0;0.0;-999;-999;
03/01/2022;16:15;13.7;1020.4;83.0;0.000;0.000;0.0;0.0;-999;-999;
03/01/2022;16:30;13.6;1020.3;84.0;0.000;0.000;0.0;0.0;-999;-999;
03/01/2022;16:45;13.1;1020.0;86.0;0.000;0.000;0.0;0.0;-999;-999;
03/01/2022;17:00;12.4;1019.8;88.0;0.000;0.000;0.0;0.0;-999;-999;
03/01/2022;17:15;12.0;1019.6;89.0;0.000;0.000;0.0;0.0;-999;-999;
03/01/2022;17:30;11.1;1019.4;90.0;0.000;0.000;0.0;0.0;-999;-999;
03/01/2022;17:45;10.2;1019.4;92.0;0.000;0.000;0.0;0.0;-999;-999;
03/01/2022;18:00;9.6;1019.4;93.0;0.000;0.000;0.0;0.0;-999;-999;
03/01/2022;18:15;9.2;1019.2;94.0;0.000;0.000;0.0;0.0;-999;-999;
03/01/2022;18:30;8.6;1019.0;94.0;0.000;0.000;0.0;0.0;-999;-999;
03/01/2022;18:45;8.0;1018.9;94.0;0.000;0.000;0.0;0.0;-999;-999;
03/01/2022;19:00;7.5;1018.8;94.0;0.000;0.000;0.0;0.0;-999;-999;
03/01/2022;19:15;7.4;1018.8;95.0;0.000;0.000;0.0;0.0;-999;-999;
03/01/2022;19:30;7.2;1018.6;95.0;0.000;0.000;0.0;0.0;-999;-999;
03/01/2022;19:45;7.0;1018.5;95.0;0.000;0.000;0.0;0.0;-999;-999;
03/01/2022;20:00;6.7;1018.3;95.0;0.000;0.000;0.0;0.0;-999;-999;
03/01/2022;20:15;6.3;1018.2;95.0;0.000;0.000;0.0;0.0;-999;-999;
03/01/2022;20:30;6.2;1017.9;95.0;0.000;0.000;0.0;0.0;-999;-999;
03/01/2022;20:45;6.1;1017.7;95.0;0.000;0.000;0.0;0.0;-999;-999;
03/01/2022;21:00;5.9;1017.6;95.0;0.000;0.000;0.0;0.0;-999;-999;
03/01/2022;21:15;6.1;1017.5;96.0;0.000;0.000;0.0;0.0;-999;-999;
03/01/2022;21:30;6.4;1017.3;96.0;0.000;0.000;0.0;0.0;-999;-999;
03/01/2022;21:45;6.3;1017.1;96.0;0.000;0.000;0.0;0.0;-999;-999;
03/01/2022;22:00;6.4;1017.0;96.0;0.000;0.000;0.0;0.0;-999;-999;
03/01/2022;22:15;6.6;1016.7;96.0;0.000;0.000;0.0;0.0;-999;-999;
03/01/2022;22:30;6.4;1016.5;96.0;0.000;0.000;0.0;0.0;-999;-999;
03/01/2022;22:45;6.5;1016.3;96.0;0.000;0.000;0.0;0.0;-999;-999;
03/01/2022;23:00;6.7;1016.1;96.0;0.000;0.000;0.0;0.0;-999;-999;
03/01/2022;23:15;6.9;1015.9;96.0;0.000;0.000;0.0;0.0;-999;-999;
03/01/2022;23:30;7.2;1015.8;96.0;0.000;0.000;0.0;1.6;-999;ESE;
03/01/2022;23:45;7.1;1015.4;96.0;0.000;0.000;0.0;0.0;-999;-999;
04/01/2022;00:00;7.1;1015.3;96.0;0.000;0.000;0.0;0.0;-999;-999;
04/01/2022;00:15;7.0;1015.1;96.0;0.000;0.000;0.0;0.0;-999;-999;
04/01/2022;00:30;6.9;1014.7;96.0;0.000;0.000;0.0;0.0;-999;-999;
04/01/2022;00:45;6.2;1014.6;96.0;0.000;0.000;0.0;0.0;-999;-999;
04/01/2022;01:00;5.9;1014.4;96.0;0.000;0.000;0.0;0.0;-999;-999;
04/01/2022;01:15;5.6;1014.2;96.0;0.000;0.000;0.0;0.0;-999;-999;
04/01/2022;01:30;5.3;1013.8;96.0;0.000;0.000;0.0;0.0;-999;-999;
04/01/2022;01:45;5.1;1013.7;96.0;0.000;0.000;0.0;0.0;-999;-999;
04/01/2022;02:00;4.8;1013.5;96.0;0.000;0.000;0.0;0.0;-999;-999;
04/01/2022;02:15;4.8;1013.4;96.0;0.000;0.000;0.0;0.0;-999;-999;
04/01/2022;02:30;5.1;1013.2;96.0;0.000;0.000;0.0;0.0;-999;-999;
04/01/2022;02:45;4.9;1013.2;96.0;0.000;0.000;0.0;0.0;-999;-999;
04/01/2022;03:00;4.7;1013.1;96.0;0.000;0.000;0.0;0.0;-999;-999;
04/01/2022;03:15;4.8;1013.1;96.0;0.000;0.000;0.0;0.0;-999;-999;
04/01/2022;03:30;4.4;1013.0;96.0;0.000;0.000;0.0;0.0;-999;-999;
04/01/2022;03:45;4.1;1012.7;96.0;0.000;0.000;0.0;0.0;-999;-999;
04/01/2022;04:00;4.1;1012.6;96.0;0.000;0.000;0.0;0.0;-999;-999;
04/01/2022;04:15;3.9;1012.5;96.0;0.000;0.000;0.0;0.0;-999;-999;
04/01/2022;04:30;3.7;1012.2;96.0;0.000;0.000;0.0;0.0;-999;-999;
04/01/2022;04:45;3.2;1012.0;96.0;0.000;0.000;0.0;0.0;-999;-999;
04/01/2022;05:00;3.2;1011.6;96.0;0.000;0.000;0.0;0.0;-999;-999;
04/01/2022;05:15;3.1;1011.3;96.0;0.000;0.000;0.0;0.0;-999;-999;
04/01/2022;05:30;3.3;1011.1;96.0;0.000;0.000;0.0;0.0;-999;-999;
04/01/2022;05:45;3.8;1011.2;97.0;0.000;0.000;0.0;1.6;-999;SE;
04/01/2022;06:00;5.7;1010.8;97.0;0.000;0.000;0.0;3.2;E;E;
04/01/2022;06:15;6.5;1010.6;97.0;0.000;0.000;0.0;1.6;ONO;OSO;
04/01/2022;06:30;6.4;1010.1;97.0;0.000;0.000;1.6;12.9;E;E;
04/01/2022;06:45;6.1;1010.1;97.0;0.000;0.000;0.0;4.8;-999;ESE;
04/01/2022;07:00;6.0;1010.1;97.0;0.000;0.000;0.0;3.2;-999;E;
04/01/2022;07:15;5.8;1009.9;96.0;0.000;0.000;0.0;0.0;-999;-999;
04/01/2022;07:30;5.9;1009.9;96.0;0.000;0.000;0.0;6.4;-999;ESE;
04/01/2022;07:45;5.6;1009.8;96.0;0.000;0.000;0.0;1.6;-999;ESE;
04/01/2022;08:00;5.4;1009.4;95.0;0.000;0.000;0.0;1.6;-999;ESE;
04/01/2022;08:15;5.6;1009.3;96.0;0.000;0.000;0.0;3.2;E;ESE;
04/01/2022;08:30;5.5;1009.2;95.0;0.000;0.000;0.0;1.6;ESE;ESE;
04/01/2022;08:45;5.7;1009.7;96.0;0.000;0.000;0.0;0.0;-999;-999;
04/01/2022;09:00;5.9;1009.8;96.0;0.000;0.000;0.0;0.0;-999;-999;
04/01/2022;09:15;6.4;1009.5;96.0;0.000;0.000;0.0;0.0;-999;-999;
04/01/2022;09:30;6.6;1009.6;96.0;0.000;0.000;0.0;3.2;-999;ESE;
04/01/2022;09:45;6.8;1009.4;96.0;0.000;0.000;0.0;4.8;ENE;E;
04/01/2022;10:00;7.4;1009.5;96.0;0.000;0.000;0.0;4.8;ESE;ESE;
04/01/2022;10:15;8.2;1009.2;96.0;0.000;0.000;0.0;3.2;E;ENE;
04/01/2022;10:30;9.1;1009.1;96.0;0.000;0.000;0.0;8.0;ENE;E;
04/01/2022;10:45;9.6;1009.8;96.0;0.000;0.000;0.0;4.8;ONO;O;
04/01/2022;11:00;9.9;1009.7;95.0;0.000;0.000;0.0;3.2;N;S;
04/01/2022;11:15;10.2;1009.5;94.0;0.000;0.000;0.0;1.6;E;E;
04/01/2022;11:30;10.8;1009.5;94.0;0.000;0.000;1.6;6.4;E;NE;
04/01/2022;11:45;11.5;1009.3;92.0;0.000;0.000;1.6;6.4;E;ENE;
04/01/2022;12:00;12.2;1009.1;89.0;0.000;0.000;1.6;9.7;E;ENE;
04/01/2022;12:15;12.5;1008.7;87.0;0.000;0.000;1.6;14.5;E;ENE;
04/01/2022;12:30;12.9;1008.5;86.0;0.000;0.000;1.6;14.5;ESE;NE;
04/01/2022;12:45;12.8;1008.1;85.0;0.000;0.000;1.6;11.3;E;ESE;
04/01/2022;13:00;12.6;1007.7;85.0;0.000;0.000;1.6;11.3;E;E;
04/01/2022;13:15;12.7;1007.6;86.0;0.000;0.000;1.6;8.0;E;ESE;
04/01/2022;13:30;13.1;1007.5;85.0;0.000;0.000;0.0;11.3;E;E;
04/01/2022;13:45;13.4;1007.3;84.0;0.000;0.000;1.6;11.3;E;ESE;
04/01/2022;14:00;13.3;1007.2;84.0;0.000;0.000;1.6;11.3;ESE;E;
04/01/2022;14:15;13.1;1007.0;84.0;0.000;0.000;1.6;8.0;E;E;
04/01/2022;14:30;13.1;1006.7;85.0;0.000;0.000;1.6;9.7;SE;ESE;
04/01/2022;14:45;13.4;1006.5;83.0;0.000;0.000;1.6;12.9;E;E;
04/01/2022;15:00;13.3;1006.4;83.0;0.000;0.000;3.2;16.1;E;ESE;
04/01/2022;15:15;13.4;1006.4;84.0;0.000;0.000;0.0;4.8;E;ESE;
04/01/2022;15:30;13.3;1006.5;83.0;0.000;0.000;0.0;6.4;ESE;E;
04/01/2022;15:45;13.3;1006.3;82.0;0.000;0.000;0.0;6.4;SE;E;
04/01/2022;16:00;13.1;1006.2;84.0;0.000;0.000;0.0;4.8;E;ESE;
04/01/2022;16:15;12.6;1006.1;84.0;0.000;0.000;0.0;4.8;E;E;
04/01/2022;16:30;12.3;1006.1;85.0;0.000;0.000;0.0;3.2;-999;E;
04/01/2022;16:45;11.9;1006.1;87.0;0.000;0.000;0.0;3.2;-999;E;
04/01/2022;17:00;11.6;1006.4;88.0;0.000;0.000;0.0;4.8;-999;ENE;
04/01/2022;17:15;10.9;1006.4;89.0;0.000;0.000;0.0;0.0;-999;-999;
04/01/2022;17:30;10.2;1006.6;90.0;0.000;0.000;0.0;0.0;-999;-999;
04/01/2022;17:45;9.7;1006.9;92.0;0.000;0.000;0.0;0.0;-999;-999;
04/01/2022;18:00;9.3;1007.2;92.0;0.000;0.000;0.0;0.0;-999;-999;
04/01/2022;18:15;9.1;1007.1;93.0;0.000;0.000;0.0;0.0;-999;-999;
04/01/2022;18:30;8.9;1007.1;94.0;0.000;0.000;0.0;0.0;-999;-999;
04/01/2022;18:45;8.9;1007.5;94.0;0.000;0.000;0.0;0.0;-999;-999;
04/01/2022;19:00;9.4;1007.7;94.0;0.000;0.000;0.0;0.0;-999;-999;
04/01/2022;19:15;10.0;1007.8;93.0;0.000;0.000;0.0;3.2;-999;ONO;
04/01/2022;19:30;10.2;1007.9;93.0;0.000;0.000;0.0;1.6;-999;SSO;
04/01/2022;19:45;10.2;1007.9;92.0;0.000;0.000;0.0;0.0;-999;-999;
04/01/2022;20:00;10.2;1008.2;93.0;0.000;0.000;0.0;0.0;-999;-999;
04/01/2022;20:15;10.4;1008.7;94.0;1.800;1.803;6.4;16.1;ONO;O;
04/01/2022;20:30;10.3;1009.5;94.0;1.000;0.711;6.4;16.1;O;ONO;
04/01/2022;20:45;9.9;1010.2;94.0;0.600;0.508;8.0;19.3;O;O;